EW5195 Weather Reports


time (UTC)temp
C
wind
direction
speed
KPH
gust
KPH
rain 1hr
cm
rain 24hr
cm
rain mn
cm
humidity
%
barometer
mb
20260510214601 28 0 0.0 6.4 0.00 0.00 0.00 35 1013.4
20260510213052 29 0 0.0 4.8 0.00 0.00 0.00 34 1013.4
20260510211600 29 153 0.0 6.4 0.00 0.00 0.00 34 1013.3
20260510210052 29 0 0.0 6.4 0.00 0.00 0.00 35 1013.4
20260510204556 30 170 0.0 9.7 0.00 0.00 0.00 33 1013.1
20260510203051 28 0 0.0 6.4 0.00 0.00 0.00 39 1013.3
20260510201555 28 0 0.0 8.0 0.00 0.00 0.00 41 1013.4
20260510200052 28 0 1.6 8.0 0.00 0.00 0.00 36 1013.5
20260510194551 28 118 0.0 4.8 0.00 0.00 0.00 39 1013.6
20260510193055 28 138 1.6 8.0 0.00 0.00 0.00 39 1014.0
20260510191553 28 256 1.6 11.3 0.00 0.00 0.00 39 1013.9
20260510190100 28 0 1.6 6.4 0.00 0.00 0.00 38 1014.0
20260510184553 28 306 0.0 4.8 0.00 0.00 0.00 42 1014.3
20260510183052 28 0 0.0 6.4 0.00 0.00 0.00 46 1014.3
20260510181608 28 0 0.0 6.4 0.00 0.00 0.00 38 1014.4
20260510180107 28 0 0.0 6.4 0.00 0.00 0.00 38 1014.7
20260510174601 27 0 0.0 11.3 0.00 0.00 0.00 38 1014.7
20260510173054 27 71 0.0 11.3 0.00 0.00 0.00 37 1014.5
20260510171559 27 0 0.0 6.4 0.00 0.00 0.00 40 1014.9
20260510170122 27 151 0.0 8.0 0.00 0.00 0.00 38 1015.2
20260510164606 27 0 0.0 8.0 0.00 0.00 0.00 48 1015.2
20260510163053 27 0 0.0 8.0 0.00 0.00 0.00 44 1015.2
20260510161554 27 0 0.0 3.2 0.00 0.00 0.00 46 1015.4
20260510160054 26 0 0.0 6.4 0.00 0.00 0.00 45 1015.4
20260510154554 26 125 0.0 4.8 0.00 0.00 0.00 44 1015.5
20260510153056 26 0 0.0 4.8 0.00 0.00 0.00 44 1015.8
20260510151552 26 0 0.0 1.6 0.00 0.00 0.00 44 1016.0
20260510150052 26 0 0.0 4.8 0.00 0.00 0.00 47 1015.8
20260510144552 25 0 0.0 4.8 0.00 0.00 0.00 46 1015.8
20260510143052 25 0 0.0 3.2 0.00 0.00 0.00 49 1015.6
20260510141553 24 352 0.0 1.6 0.00 0.00 0.00 52 1015.6
20260510140054 23 0 0.0 3.2 0.00 0.00 0.00 58 1015.4
20260510134556 23 0 0.0 1.6 0.00 0.00 0.00 61 1015.5
20260510133051 22 0 0.0 3.2 0.00 0.00 0.00 64 1015.6
20260510131552 21 0 0.0 3.2 0.00 0.00 0.00 68 1015.6
20260510130054 20 0 0.0 0.0 0.00 0.00 0.00 72 1015.3
20260510124605 19 0 0.0 1.6 0.00 0.00 0.00 76 1015.4
20260510123053 17 0 0.0 1.6 0.00 0.00 0.00 83 1015.3
20260510121555 16 0 0.0 1.6 0.00 0.00 0.00 89 1015.0
20260510120054 15 0 0.0 0.0 0.00 0.00 0.00 93 1014.9
20260510114601 13 0 0.0 0.0 0.00 0.00 0.00 93 1014.7
20260510113053 13 0 0.0 0.0 0.00 0.00 0.00 93 1014.4
20260510111549 12 0 0.0 0.0 0.00 0.00 0.00 93 1014.1
20260510110053 12 0 0.0 0.0 0.00 0.00 0.00 93 1014.0
20260510104557 12 0 0.0 0.0 0.00 0.00 0.00 92 1013.8
20260510103056 12 0 0.0 1.6 0.00 0.00 0.00 91 1013.6
20260510101600 12 0 0.0 0.0 0.00 0.00 0.00 92 1013.5
20260510100101 12 0 0.0 0.0 0.00 0.00 0.00 92 1013.1
20260510094553 13 0 0.0 0.0 0.00 0.00 0.00 92 1012.9
20260510093055 13 0 0.0 0.0 0.00 0.00 0.00 92 1012.9
20260510091553 13 0 0.0 0.0 0.00 0.00 0.00 91 1012.9
20260510090054 13 0 0.0 0.0 0.00 0.00 0.00 91 1012.7
20260510084553 13 0 0.0 0.0 0.00 0.00 0.00 91 1012.5
20260510083103 14 0 0.0 0.0 0.00 0.00 0.00 91 1012.5
20260510081553 14 0 0.0 0.0 0.00 0.00 0.00 90 1012.3
20260510080053 14 0 0.0 0.0 0.00 0.00 0.00 90 1012.3
20260510074556 15 0 0.0 0.0 0.00 0.00 0.00 89 1012.0
20260510073105 15 0 0.0 0.0 0.00 0.00 0.00 89 1011.9
20260510071552 15 0 0.0 0.0 0.00 0.00 0.00 88 1012.0
20260510070054 16 0 0.0 0.0 0.00 0.00 0.00 88 1011.9
20260510064554 16 0 0.0 0.0 0.00 0.00 0.00 87 1011.9
20260510063054 16 0 0.0 1.6 0.00 0.00 0.00 87 1012.1
20260510061552 16 0 0.0 0.0 0.00 0.00 0.00 87 1012.0
20260510060055 16 0 0.0 1.6 0.00 0.00 0.00 87 1012.1
20260510054550 16 0 0.0 3.2 0.00 0.00 0.00 87 1012.1
20260510053056 16 0 0.0 0.0 0.00 0.00 0.00 87 1012.2
20260510051556 16 0 0.0 0.0 0.00 0.00 0.00 87 1012.2
20260510050057 16 0 0.0 0.0 0.00 0.00 0.00 86 1012.3
20260510044554 16 0 0.0 0.0 0.00 0.00 0.00 84 1012.3
20260510043054 16 0 0.0 0.0 0.00 0.00 0.00 84 1012.2
20260510041553 17 0 0.0 0.0 0.00 0.00 0.00 83 1012.2
20260510040058 17 0 0.0 0.0 0.00 0.00 0.00 82 1012.1
20260510034554 17 0 0.0 1.6 0.00 0.00 0.00 82 1012.0
20260510033112 17 0 0.0 3.2 0.00 0.00 0.00 81 1012.1
20260510031550 17 0 0.0 1.6 0.00 0.00 0.00 81 1011.9
20260510030054 17 0 0.0 0.0 0.00 0.00 0.00 80 1011.9
20260510024601 17 0 0.0 0.0 0.00 0.00 0.00 80 1011.7
20260510023051 17 0 0.0 1.6 0.00 0.00 0.00 80 1011.8
20260510021552 17 0 0.0 0.0 0.00 0.00 0.00 79 1011.6
20260510020053 17 0 0.0 0.0 0.00 0.00 0.00 79 1011.3
20260510014553 17 0 0.0 0.0 0.00 0.00 0.00 78 1011.2
20260510013053 17 0 0.0 0.0 0.00 0.00 0.00 77 1011.1
20260510011550 18 0 0.0 0.0 0.00 0.00 0.00 76 1011.0
20260510010049 18 0 0.0 0.0 0.00 0.00 0.00 74 1010.8
20260510004554 18 0 0.0 0.0 0.00 0.00 0.00 72 1010.8
20260510003103 19 0 0.0 1.6 0.00 0.00 0.00 70 1010.6
20260510001557 20 0 0.0 0.0 0.00 0.00 0.00 68 1010.2
20260510000057 21 0 0.0 0.0 0.00 0.00 0.00 65 1010.1
20260509234559 21 0 0.0 0.0 0.00 0.00 0.00 62 1009.9
20260509233053 22 0 0.0 1.6 0.00 0.00 0.00 62 1009.9
20260509231559 22 0 0.0 1.6 0.00 0.00 0.00 60 1009.9
20260509224558 22 0 0.0 1.6 0.00 0.00 0.00 59 1009.9
20260509223053 23 0 0.0 1.6 0.00 0.00 0.00 59 1009.9
20260509221557 23 0 0.0 3.2 0.00 0.00 0.00 57 1009.6
20260509220057 23 0 0.0 1.6 0.00 0.00 0.00 54 1009.7